GPS BIIR-5 (PRN 22) 1 26407U 00040A 26255.10669080 -.00000006 00000+0 00000+0 0 9998 2 26407 54.8394 211.7123 0118339 303.7653 98.8084 2.00558320191691 GPS BIIR-8 (PRN 16) 1 27663U 03005A 26254.60300986 -.00000010 00000+0 00000+0 0 9993 2 27663 54.8693 211.5378 0150225 53.5986 121.3720 2.00555870173042 GPS BIIR-11 (PRN 19) 1 28190U 04009A 26253.89719514 -.00000011 00000+0 00000+0 0 9996 2 28190 54.7639 272.2167 0117973 176.3888 2.1213 2.00573795164662 GPS BIIR-13 (PRN 02) 1 28474U 04045A 26254.14304954 -.00000079 00000+0 00000+0 0 9992 2 28474 55.0798 321.4298 0172011 318.4975 101.9612 2.00559594160151 GPS BIIRM-1 (PRN 17) 1 28874U 05038A 26254.68789001 -.00000015 00000+0 00000+0 0 9998 2 28874 54.8134 269.6790 0128756 297.4628 121.8822 2.00559724153571 INMARSAT 4-F2 (SOUTHPAN/PRN 122) 1 28899U 05044A 26255.25135485 -.00000272 00000+0 00000+0 0 9992 2 28899 5.2089 43.7219 0002333 130.7260 50.8032 1.00271168076397 GPS BIIRM-2 (PRN 31) 1 29486U 06042A 26254.49975404 .00000013 00000+0 00000+0 0 9994 2 29486 54.7152 147.9105 0108783 57.0520 126.5252 2.00565341146121 GPS BIIRM-3 (PRN 12) 1 29601U 06052A 26255.17223389 -.00000005 00000+0 00000+0 0 9990 2 29601 54.9240 210.5606 0085404 91.1350 269.8072 2.00562877145151 GPS BIIRM-4 (PRN 15) 1 32260U 07047A 26254.98184191 -.00000014 00000+0 00000+0 0 9995 2 32260 54.1635 76.4901 0169011 89.4051 272.5828 2.00551515138551 COSMOS 2433 (720) 1 32275U 07052A 26255.19759663 -.00000045 00000+0 00000+0 0 9997 2 32275 65.5225 313.0027 0005397 223.8548 136.1798 2.13104026146913 COSMOS 2432 (719) 1 32276U 07052B 26255.26851492 -.00000046 00000+0 00000+0 0 9990 2 32276 65.5383 313.1296 0008627 307.5173 50.4881 2.13103011146937 GPS BIIRM-5 (PRN 29) 1 32384U 07062A 26255.30859454 -.00000018 00000+0 00000+0 0 9991 2 32384 54.9678 270.6430 0036015 170.0830 195.9120 2.00564843137265 COSMOS 2434 (721) 1 32393U 07065A 26252.22251193 -.00000020 00000+0 00000+0 0 9991 2 32393 64.3196 189.0826 0001481 28.9610 98.0835 2.13101148145560 COSMOS 2436 (723) 1 32395U 07065C 26255.18701825 .00000004 00000+0 00000+0 0 9994 2 32395 64.3280 189.0560 0017436 358.7557 14.4716 2.13099789145581 GPS BIIRM-6 (PRN 07) 1 32711U 08012A 26254.88997438 .00000014 00000+0 00000+0 0 9993 2 32711 54.5035 146.4598 0211407 248.5370 109.2661 2.00552428135494 GPS BIIRM-8 (PRN 05) 1 35752U 09043A 26254.39455610 -.00000096 00000+0 00000+0 0 9994 2 35752 56.2613 24.0728 0051599 86.0301 286.2006 2.00577039125091 COSMOS 2456 (730) 1 36111U 09070A 26249.73482227 .00000037 00000+0 00000+0 0 9994 2 36111 65.0634 68.1929 0001851 353.7024 183.4854 2.13103422130164 COSMOS 2457 (733) 1 36112U 09070B 26254.96032493 -.00000003 00000+0 00000+0 0 9996 2 36112 65.0524 67.8570 0005855 130.4391 222.2066 2.13100816130279 COSMOS 2460 (732) 1 36402U 10007C 26251.21014905 -.00000027 00000+0 00000+0 0 9999 2 36402 65.3677 311.6550 0002316 209.5113 148.1159 2.13101570128498 GPS BIIF-1 (PRN 25) 1 36585U 10022A 26254.00000000 -.00000016 00000+0 00000+0 0 9997 2 36585 54.2612 205.1080 0128905 66.3945 140.7715 2.00566725119316 BEIDOU-2 IGSO-1 (C06) 1 36828U 10036A 26233.75814490 -.00000137 00000+0 00000+0 0 9991 2 36828 54.3073 162.3689 0058187 224.3483 321.2966 1.00253816058751 BEIDOU-2 G4 (C04) 1 37210U 10057A 26255.31413895 -.00000125 00000+0 00000+0 0 9997 2 37210 3.8586 68.3272 0007990 180.0187 16.0579 1.00270634058164 BEIDOU-2 IGSO-2 (C07) 1 37256U 10068A 26253.99100328 -.00000181 00000+0 00000+0 0 9997 2 37256 47.3940 270.7552 0057250 216.2433 325.9173 1.00254283057658 BEIDOU-2 IGSO-3 (C08) 1 37384U 11013A 26254.72041399 -.00000177 00000+0 00000+0 0 9999 2 37384 62.5388 39.3441 0034682 183.6392 132.9930 1.00292639056525 GSAT-8 (GAGAN/PRN 127) 1 37605U 11022A 26255.23384810 .00000071 00000+0 00000+0 0 9992 2 37605 2.3500 80.6681 0005793 156.9482 252.9059 1.00271562054095 BEIDOU-2 IGSO-4 (C09) 1 37763U 11038A 26253.81888677 -.00000114 00000+0 00000+0 0 9995 2 37763 54.6025 164.9115 0160322 231.0094 343.0930 1.00268280055504 GSAT0101 (GALILEO-PFM) 1 37846U 11060A 26254.66300968 -.00000103 00000+0 00000+0 0 9996 2 37846 56.9594 339.4167 0000252 59.2386 300.8114 1.70475619092595 GSAT0102 (GALILEO-FM2) 1 37847U 11060B 26246.42885211 -.00000084 00000+0 00000+0 0 9999 2 37847 56.9635 339.6410 0001594 329.3167 62.9507 1.70475714092467 COSMOS 2476 (744) 1 37867U 11064A 26254.09797262 .00000010 00000+0 00000+0 0 9993 2 37867 65.3238 69.9735 0022536 230.7215 322.0571 2.13103670115591 COSMOS 2477 (745) 1 37868U 11064B 26255.25716154 -.00000001 00000+0 00000+0 0 9995 2 37868 65.3304 70.0147 0019299 230.8178 311.3238 2.13102570115619 COSMOS 2475 (743) 1 37869U 11064C 26255.22503558 .00000000 00000+0 00000+0 0 9993 2 37869 65.3375 70.0384 0024498 246.3694 225.8740 2.13101319115621 BEIDOU-2 IGSO-5 (C10) 1 37948U 11073A 26253.79533383 -.00000160 00000+0 00000+0 0 9998 2 37948 47.5267 270.4734 0116652 224.1508 237.2700 1.00279182053991 LUCH 5A (SDCM/PRN 140) 1 37951U 11074B 26255.30024955 -.00000060 00000+0 00000+0 0 9991 2 37951 8.9694 72.5067 0003883 120.8575 72.9739 1.00272684053926 BEIDOU-2 G5 (C05) 1 38091U 12008A 26255.16330112 .00000044 00000+0 00000+0 0 9995 2 38091 3.7859 69.0679 0006839 239.5091 160.1264 1.00267637053243 BEIDOU-2 M3 (C11) 1 38250U 12018A 26250.34327845 -.00000028 00000+0 00000+0 0 9990 2 38250 55.6835 302.1014 0022906 272.4999 87.3124 1.86229821097475 BEIDOU-2 M4 (C12) 1 38251U 12018B 26254.03441668 -.00000049 00000+0 00000+0 0 9994 2 38251 55.5803 301.1830 0014225 272.3678 87.5423 1.86229392097548 SES-5 (EGNOS/PRN 136) 1 38652U 12036A 26255.29520838 .00000000 00000+0 00000+0 0 9991 2 38652 0.0150 43.1070 0001973 124.0606 295.3840 1.00270079045338 BEIDOU-2 M6 (C14) 1 38775U 12050B 26254.81753932 -.00000038 00000+0 00000+0 0 9995 2 38775 56.6242 60.0343 0011002 4.3540 355.6744 1.86230878094924 GSAT-10 (GAGAN/PRN 128) 1 38779U 12051B 26255.14052926 -.00000180 00000+0 00000+0 0 9990 2 38779 0.0556 270.2303 0005620 201.8742 12.6259 1.00273324050974 GPS BIIF-3 (PRN 24) 1 38833U 12053A 26254.07115221 .00000014 00000+0 00000+0 0 9997 2 38833 53.5962 140.0783 0185451 67.3330 294.6954 2.00556923101166 GSAT0103 (GALILEO-FM3) 1 38857U 12055A 26254.70411981 .00000015 00000+0 00000+0 0 9998 2 38857 55.8600 99.1697 0002047 315.2788 44.7968 1.70473471086483 BEIDOU-2 G6 (C02) 1 38953U 12059A 26255.09708750 -.00000188 00000+0 00000+0 0 9997 2 38953 4.6364 72.5336 0006848 323.5617 73.9929 1.00270221050786 LUCH 5B (SDCM/PRN 125) 1 38977U 12061A 26255.21972138 -.00000148 00000+0 00000+0 0 9999 2 38977 10.6683 48.9944 0006009 165.3581 199.6580 1.00269791050482 COSMOS 2485 (747) 1 39155U 13019A 26250.96886674 .00000039 00000+0 00000+0 0 9996 2 39155 65.4699 70.8288 0022969 226.3838 133.4785 2.13102930104048 GPS BIIF-4 (PRN 27) 1 39166U 13023A 26253.93870360 -.00000008 00000+0 00000+0 0 9995 2 39166 54.4436 265.4738 0142242 51.1420 310.1467 2.00563471097608 IRNSS-1A 1 39199U 13034A 26253.98563272 .00000076 00000+0 00000+0 0 9993 2 39199 35.9094 62.6436 0019989 178.1079 159.1335 1.00274175048229 GPS BIIF-5 (PRN 30) 1 39533U 14008A 26254.93755993 .00000013 00000+0 00000+0 0 9997 2 39533 53.6623 145.7793 0083589 231.5683 127.7499 2.00565427091423 ASTRA 5B (EGNOS/PRN 123) 1 39617U 14011B 26255.22760808 .00000122 00000+0 00000+0 0 9999 2 39617 0.1039 293.5902 0002807 256.5197 266.5756 1.00269300045549 COSMOS 2492 (754) 1 39620U 14012A 26253.74334602 -.00000034 00000+0 00000+0 0 9991 2 39620 65.2426 311.0251 0011537 307.9222 52.0528 2.13103162097065 IRNSS-1B 1 39635U 14017A 26255.00745536 .00000094 00000+0 00000+0 0 9990 2 39635 28.7769 238.9116 0020354 191.5497 338.3290 1.00269719045661 LUCH 5V (SDCM/PRN 141) 1 39727U 14023A 26255.02784053 -.00000281 00000+0 00000+0 0 9997 2 39727 5.3446 68.7928 0002658 139.8943 247.1260 1.00270837045234 GPS BIIF-6 (PRN 06) 1 39741U 14026A 26255.21641731 -.00000090 00000+0 00000+0 0 9990 2 39741 56.4493 328.1268 0039293 324.1701 35.6287 2.00554703090287 COSMOS 2500 (755) 1 40001U 14032A 26251.09649654 -.00000026 00000+0 00000+0 0 9991 2 40001 65.1795 310.8561 0009480 202.9458 157.0874 2.13105882095225 GPS BIIF-7 (PRN 09) 1 40105U 14045A 26254.80750477 .00000003 00000+0 00000+0 0 9992 2 40105 55.4149 85.0144 0036346 119.8600 240.5660 2.00564033087819 GSAT0201 (GALILEO 5) 1 40128U 14050A 26255.19351443 -.00000034 00000+0 00000+0 0 9991 2 40128 48.7843 269.8594 1686337 182.7547 176.1917 1.85519597079932 GSAT0202 (GALILEO 6) 1 40129U 14050B 26254.37077936 -.00000029 00000+0 00000+0 0 9997 2 40129 48.8022 268.9798 1687741 183.4320 175.2535 1.85520202082087 IRNSS-1C 1 40269U 14061A 26255.09682750 -.00000174 00000+0 00000+0 0 9991 2 40269 6.7331 87.2560 0020178 9.8510 11.9244 1.00271316043562 GPS BIIF-8 (PRN 03) 1 40294U 14068A 26254.67830742 -.00000091 00000+0 00000+0 0 9993 2 40294 57.0446 27.6301 0067069 73.7719 286.9591 2.00556705086945 COSMOS 2501 (702K) 1 40315U 14075A 26254.64437777 -.00000002 00000+0 00000+0 0 9995 2 40315 63.6173 187.3806 0022192 210.5501 149.3143 2.13101274091695 GPS BIIF-9 (PRN 26) 1 40534U 15013A 26254.31523678 -.00000015 00000+0 00000+0 0 9995 2 40534 53.1580 200.6179 0112771 41.0484 319.7596 2.00570877083552 GSAT0203 (GALILEO 7) 1 40544U 15017A 26252.09412080 -.00000100 00000+0 00000+0 0 9992 2 40544 56.7527 339.3092 0004460 251.6359 108.3566 1.70476378070633 GSAT0204 (GALILEO 8) 1 40545U 15017B 26254.69651230 -.00000103 00000+0 00000+0 0 9996 2 40545 56.7582 339.2572 0004836 241.3315 118.6677 1.70475843033724 BEIDOU-3S IGSO-1S (C31) 1 40549U 15019A 26253.70909148 -.00000162 00000+0 00000+0 0 9992 2 40549 49.0313 294.4241 0038711 200.3707 205.9134 1.00288273041931 GPS BIIF-10 (PRN 08) 1 40730U 15033A 26253.98036862 -.00000009 00000+0 00000+0 0 9994 2 40730 53.9223 263.5429 0117089 30.5092 330.1897 2.00551728081714 BEIDOU-3S M2S (C58) 1 40748U 15037A 26254.23534491 -.00000049 00000+0 00000+0 0 9991 2 40748 54.7915 299.0777 0011625 259.4932 100.4462 1.86231926075722 BEIDOU-3S M1S (C57) 1 40749U 15037B 26252.28469299 -.00000034 00000+0 00000+0 0 9992 2 40749 54.7897 299.1308 0001810 48.3830 311.7068 1.86254857075693 GSAT0206 (GALILEO 10) 1 40890U 15045B 26254.09842668 -.00000002 00000+0 00000+0 0 9999 2 40890 54.9256 219.2330 0002540 349.0399 10.9008 1.70473136068501 BEIDOU-3S IGSO-2S (C56) 1 40938U 15053A 26253.96073912 -.00000124 00000+0 00000+0 0 9999 2 40938 49.0947 257.7528 0065681 192.4722 341.2961 1.00285074040218 GPS BIIF-11 (PRN 10) 1 41019U 15062A 26255.02923263 -.00000092 00000+0 00000+0 0 9996 2 41019 57.0156 27.4729 0115821 231.0497 127.9112 2.00566941079570 GSAT-15 (GAGAN/PRN 139) 1 41028U 15065A 26255.09890750 -.00000272 00000+0 00000+0 0 9990 2 41028 0.0447 264.7267 0001650 239.0915 336.3790 1.00269430039678 GSAT0209 (GALILEO 12) 1 41174U 15079A 26253.09398405 .00000021 00000+0 00000+0 0 9996 2 41174 55.8813 98.9312 0003699 16.5279 343.5809 1.70473608066222 GSAT0208 (GALILEO 11) 1 41175U 15079B 26253.90103922 .00000018 00000+0 00000+0 0 9991 2 41175 55.8790 98.9063 0005171 45.8921 314.2454 1.70473654066655 IRNSS-1E 1 41241U 16003A 26254.88858807 -.00000297 00000+0 00000+0 0 9990 2 41241 33.4232 58.4963 0021433 180.1508 183.9723 1.00276715038959 GPS BIIF-12 (PRN 32) 1 41328U 16007A 26254.61951825 .00000007 00000+0 00000+0 0 9993 2 41328 55.5828 86.0329 0097493 247.2191 111.8125 2.00572750077572 COSMOS 2514 (751) 1 41330U 16008A 26254.62907380 -.00000038 00000+0 00000+0 0 9990 2 41330 64.9655 310.0358 0013708 209.9478 150.0521 2.13102586082468 BEIDOU-2 IGSO-6 (C13) 1 41434U 16021A 26254.86364124 -.00000162 00000+0 00000+0 0 9997 2 41434 60.3547 37.1827 0061604 228.2411 132.6997 1.00282549038355 IRNSS-1G 1 41469U 16027A 26254.96344691 -.00000348 00000+0 00000+0 0 9995 2 41469 5.4052 95.4557 0003916 46.7052 325.0717 1.00265420038051 GSAT0211 (GALILEO 14) 1 41549U 16030A 26254.61074273 -.00000001 00000+0 00000+0 0 9992 2 41549 55.0761 219.3188 0003775 332.6530 27.2735 1.70473146064149 GSAT0210 (GALILEO 13) 1 41550U 16030B 26254.28128270 -.00000002 00000+0 00000+0 0 9995 2 41550 55.0753 219.3259 0004075 253.3502 106.5514 1.70473599064130 BEIDOU-2 G7 (C03) 1 41586U 16037A 26255.31609514 -.00000367 00000+0 00000+0 0 9995 2 41586 1.9316 69.6659 0005166 352.1556 153.8063 1.00275942007768 EUTELSAT 117 WEST B (WAAS/PRN 131) 1 41589U 16038B 26255.27111492 -.00000026 00000+0 00000+0 0 9999 2 41589 0.0372 14.1157 0000097 184.7473 133.0193 1.00271804037531 GSAT0207 (GALILEO 15) 1 41859U 16069A 26254.56034713 .00000015 00000+0 00000+0 0 9991 2 41859 55.5533 98.6945 0003037 359.7632 0.3287 1.70473750060879 GSAT0212 (GALILEO 16) 1 41860U 16069B 26253.24052514 .00000019 00000+0 00000+0 0 9990 2 41860 55.5502 98.7259 0003965 39.3601 320.7650 1.70473888061105 GSAT0213 (GALILEO 17) 1 41861U 16069C 26251.84779498 .00000021 00000+0 00000+0 0 9995 2 41861 55.5520 98.7726 0002168 331.3762 28.7083 1.70474341060943 GSAT0214 (GALILEO 18) 1 41862U 16069D 26253.16735567 .00000020 00000+0 00000+0 0 9991 2 41862 55.5429 98.7287 0002373 358.3065 1.7890 1.70474047061094 SES-15 (WAAS/PRN 133) 1 42709U 17026A 26255.26868824 .00000045 00000+0 00000+0 0 9999 2 42709 0.0490 328.9875 0000366 178.6946 171.1639 1.00269096008307 QZS-2 (QZSS/PRN 194) 1 42738U 17028A 26254.82176778 -.00000190 00000+0 00000+0 0 9996 2 42738 39.3043 241.8780 0750682 270.3972 275.9800 1.00261633008490 QZS-3 (QZSS/PRN 199) 1 42917U 17048A 26254.96301359 -.00000363 00000+0 00000+0 0 9999 2 42917 0.0521 162.5194 0001616 347.4711 314.6970 1.00275047033127 COSMOS 2522 (752) 1 42939U 17055A 26253.99727932 -.00000008 00000+0 00000+0 0 9998 2 42939 64.0800 188.9651 0009576 237.0189 122.8770 2.13101798069804 QZS-4 (QZSS/PRN 195) 1 42965U 17062A 26254.56086374 -.00000343 00000+0 00000+0 0 9999 2 42965 40.0519 342.3827 0749699 269.6347 81.1278 1.00274735032660 BEIDOU-3 M1 (C19) 1 43001U 17069A 26252.97199420 -.00000020 00000+0 00000+0 0 9990 2 43001 56.7701 60.2963 0007331 324.1360 35.8435 1.86231101060181 BEIDOU-3 M2 (C20) 1 43002U 17069B 26255.05877027 -.00000039 00000+0 00000+0 0 9999 2 43002 56.7708 60.2633 0006279 3.9690 356.0541 1.86230429060213 GSAT0215 (GALILEO 19) 1 43055U 17079A 26254.24294115 -.00000002 00000+0 00000+0 0 9999 2 43055 55.0541 219.1395 0003346 281.3163 78.5923 1.70473895054455 GSAT0216 (GALILEO 20) 1 43056U 17079B 26254.53404181 -.00000001 00000+0 00000+0 0 9997 2 43056 55.0545 219.1316 0004612 288.6464 71.2497 1.70473999054477 GSAT0217 (GALILEO 21) 1 43057U 17079C 26254.16828368 -.00000002 00000+0 00000+0 0 9995 2 43057 55.0524 219.1392 0004080 302.5197 57.3871 1.70473968054452 GSAT0218 (GALILEO 22) 1 43058U 17079D 26254.38836198 -.00000002 00000+0 00000+0 0 9990 2 43058 55.0528 219.1309 0005052 284.2678 75.6223 1.70473958054481 BEIDOU-3 M7 (C27) 1 43107U 18003A 26254.80116058 -.00000055 00000+0 00000+0 0 9994 2 43107 54.2473 299.2879 0003210 105.5565 254.5469 1.86227896058963 BEIDOU-3 M8 (C28) 1 43108U 18003B 26254.20763197 -.00000051 00000+0 00000+0 0 9997 2 43108 54.2406 299.2900 0004201 261.2655 98.7568 1.86230841058968 BEIDOU-3 M4 (C22) 1 43207U 18018A 26254.65115365 -.00000036 00000+0 00000+0 0 9993 2 43207 56.7296 60.3017 0006048 42.6888 317.3783 1.86231004058352 BEIDOU-3 M3 (C21) 1 43208U 18018B 26254.71766352 -.00000036 00000+0 00000+0 0 9999 2 43208 56.7302 60.3038 0005407 347.6353 12.3712 1.86230771058351 BEIDOU-3 M9 (C29) 1 43245U 18029A 26254.39917156 -.00000049 00000+0 00000+0 0 9990 2 43245 54.1130 296.9256 0001717 233.1525 126.8995 1.86228302057509 BEIDOU-3 M10 (C30) 1 43246U 18029B 26254.33309235 -.00000048 00000+0 00000+0 0 9997 2 43246 54.1108 296.9552 0002642 17.4348 342.6422 1.86229002057486 IRNSS-1I 1 43286U 18035A 26255.09119413 .00000082 00000+0 00000+0 0 9996 2 43286 28.9564 72.8411 0020590 177.6896 188.5389 1.00270830030952 COSMOS 2527 (756) 1 43508U 18053A 26254.89809332 .00000005 00000+0 00000+0 0 9991 2 43508 65.6302 71.0175 0007000 213.4884 146.5036 2.13101861064123 BEIDOU-2 IGSO-7 (C16) 1 43539U 18057A 26254.54680998 -.00000160 00000+0 00000+0 0 9999 2 43539 55.2130 162.3239 0107981 236.7833 260.8322 1.00277412029992 GSAT0221 (GALILEO 25) 1 43564U 18060A 26253.11958898 -.00000101 00000+0 00000+0 0 9995 2 43564 57.1351 339.4875 0004384 269.9725 90.0208 1.70476218050611 GSAT0222 (GALILEO 26) 1 43565U 18060B 26249.23326963 -.00000093 00000+0 00000+0 0 9996 2 43565 57.1403 339.5966 0004580 241.9595 118.0319 1.70475955050593 GSAT0219 (GALILEO 23) 1 43566U 18060C 26242.41507176 -.00000076 00000+0 00000+0 0 9998 2 43566 57.1426 339.7826 0003515 273.9182 86.0846 1.70476242050454 GSAT0220 (GALILEO 24) 1 43567U 18060D 26253.19462196 -.00000101 00000+0 00000+0 0 9997 2 43567 57.1370 339.4905 0003678 268.4040 91.5976 1.70475942050620 BEIDOU-3 M5 (C23) 1 43581U 18062A 26254.55697582 -.00000008 00000+0 00000+0 0 9991 2 43581 54.0829 179.3693 0004109 311.4726 48.4906 1.86228716055245 BEIDOU-3 M6 (C24) 1 43582U 18062B 26253.88383300 -.00000015 00000+0 00000+0 0 9995 2 43582 54.0824 179.3813 0006414 28.3297 331.6991 1.86228127055239 BEIDOU-3 M12 (C26) 1 43602U 18067A 26253.82238918 -.00000015 00000+0 00000+0 0 9991 2 43602 54.1788 178.1378 0008684 35.7772 324.2772 1.86227478054711 BEIDOU-3 M11 (C25) 1 43603U 18067B 26255.03162137 -.00000002 00000+0 00000+0 0 9992 2 43603 54.1757 178.0602 0005224 24.7633 335.2664 1.86226940054768 BEIDOU-3 M13 (C32) 1 43622U 18072A 26254.98563345 -.00000040 00000+0 00000+0 0 9990 2 43622 56.7046 59.7997 0004180 330.4364 29.5577 1.86230810054271 BEIDOU-3 M14 (C33) 1 43623U 18072B 26254.85104984 -.00000039 00000+0 00000+0 0 9995 2 43623 56.7062 59.7985 0003864 24.7605 335.2765 1.86230892054261 BEIDOU-3 M16 (C35) 1 43647U 18078A 26253.93131641 -.00000045 00000+0 00000+0 0 9992 2 43647 54.0096 296.9723 0006056 32.3821 327.7243 1.86232315053753 BEIDOU-3 M15 (C34) 1 43648U 18078B 26254.59881058 -.00000050 00000+0 00000+0 0 9996 2 43648 54.0047 296.9488 0002659 38.7743 321.3116 1.86227470053784 BEIDOU-3 G1 (C59) 1 43683U 18085A 26255.31413895 -.00000122 00000+0 00000+0 0 9994 2 43683 2.6093 94.9051 0005960 21.2547 148.3193 1.00271639028935 COSMOS 2529 (757) 1 43687U 18086A 26254.05552862 -.00000008 00000+0 00000+0 0 9990 2 43687 64.2963 189.6966 0010661 254.9299 104.9393 2.13101834061110 BEIDOU-3 M17 (C36) 1 43706U 18093A 26254.41820178 -.00000009 00000+0 00000+0 0 9999 2 43706 54.1662 179.3727 0008617 302.8640 187.5989 1.86228307053144 BEIDOU-3 M18 (C37) 1 43707U 18093B 26255.16165384 -.00000002 00000+0 00000+0 0 9997 2 43707 54.1670 179.3395 0007477 338.2296 21.7414 1.86226659053159 GPS BIII-1 (PRN 04) 1 43873U 18109A 26255.00819124 .00000007 00000+0 00000+0 0 9994 2 43873 55.7397 88.7611 0039989 196.1580 336.6894 2.00565073056819 BEIDOU-3 IGSO-1 (C38) 1 44204U 19023A 26250.73892373 -.00000201 00000+0 00000+0 0 9998 2 44204 58.8141 36.8058 0027421 223.4639 111.5661 1.00267210008039 BEIDOU-2 G8 (C01) 1 44231U 19027A 26255.32285515 -.00000260 00000+0 00000+0 0 9991 2 44231 1.8738 74.3172 0009050 278.0738 259.7237 1.00272032026950 COSMOS 2534 (758) 1 44299U 19030A 26251.29443167 -.00000019 00000+0 00000+0 0 9992 2 44299 64.3699 189.8198 0012038 275.8196 260.4578 2.13102149056694 BEIDOU-3 IGSO-2 (C39) 1 44337U 19035A 26254.45820199 -.00000155 00000+0 00000+0 0 9996 2 44337 55.2503 158.1052 0038653 211.3311 265.7860 1.00273492026530 GPS BIII-2 (PRN 18) 1 44506U 19056A 26253.40900905 -.00000085 00000+0 00000+0 0 9997 2 44506 55.5893 327.7525 0065766 199.8938 163.8410 2.00571097051789 BEIDOU-3 M24 (C46) 1 44542U 19061A 26253.08125853 -.00000024 00000+0 00000+0 0 9991 2 44542 54.3942 179.8664 0009174 11.0844 348.9243 1.86229234047379 BEIDOU-3 M23 (C45) 1 44543U 19061B 26253.49471433 -.00000020 00000+0 00000+0 0 9991 2 44543 54.3922 179.8209 0006043 0.0624 188.1997 1.86227700047386 EUTELSAT 5 WEST B (EGNOS/PRN 121) 1 44624U 19067A 26255.29321502 -.00000057 00000+0 00000+0 0 9998 2 44624 0.0807 320.7031 0003118 210.1059 281.0499 1.00271414025307 BEIDOU-3 IGSO-3 (C40) 1 44709U 19073A 26254.47291843 -.00000166 00000+0 00000+0 0 9993 2 44709 54.6556 279.9570 0046847 198.0806 161.8102 1.00264080025329 BEIDOU-3 M22 (C44) 1 44793U 19078A 26254.53316205 -.00000050 00000+0 00000+0 0 9990 2 44793 53.8546 296.7826 0004840 42.9059 317.1987 1.86227049046257 BEIDOU-3 M21 (C43) 1 44794U 19078B 26254.13590323 -.00000047 00000+0 00000+0 0 9998 2 44794 53.8284 296.7562 0002736 33.9992 326.0864 1.86227553046255 COSMOS 2544 (759) 1 44850U 19088A 26253.90393446 .00000015 00000+0 00000+0 0 9997 2 44850 65.6173 70.8727 0011883 245.7348 114.1821 2.13102659052549 BEIDOU-3 M19 (C41) 1 44864U 19090A 26254.37736057 -.00000034 00000+0 00000+0 0 9998 2 44864 56.6386 59.9456 0015767 292.8904 67.0484 1.86231354045832 BEIDOU-3 M20 (C42) 1 44865U 19090B 26252.09494478 -.00000013 00000+0 00000+0 0 9991 2 44865 56.6383 60.0563 0013054 308.9371 50.3333 1.86231127045775 BEIDOU-3 G2 (C60) 1 45344U 20017A 26255.16737448 -.00000153 00000+0 00000+0 0 9998 2 45344 2.5806 48.3907 0002124 131.9601 311.1309 1.00272263024135 COSMOS 2545 (760) 1 45358U 20018A 26254.09886896 -.00000036 00000+0 00000+0 0 9997 2 45358 64.2987 309.3957 0011763 235.3288 124.6388 2.13102362050498 BEIDOU-3 G3 (C61) 1 45807U 20040A 26255.31609514 -.00000367 00000+0 00000+0 0 9994 2 45807 2.6569 67.4129 0002644 281.4958 226.7590 1.00269676022941 GPS BIII-3 (PRN 23) 1 45854U 20041A 26255.20450088 -.00000095 00000+0 00000+0 0 9993 2 45854 56.7252 25.5740 0067432 205.4040 308.9873 2.00566080045784 GALAXY 30 (WAAS/PRN 135) 1 46114U 20056C 26255.26946824 .00000000 00000+0 00000+0 0 9998 2 46114 0.0228 160.5572 0002207 10.2914 152.4352 1.00271549022166 COSMOS 2547 (705K) 1 46805U 20075A 26254.75844100 .00000000 00000+0 00000+0 0 9993 2 46805 64.6008 189.5880 0008553 236.4821 123.4270 2.13099687045750 GPS BIII-4 (PRN 14) 1 46826U 20078A 26254.51705881 -.00000012 00000+0 00000+0 0 9999 2 46826 53.9683 207.2798 0076066 208.4421 149.1755 2.00565053043233 GPS BIII-5 (PRN 11) 1 48859U 21054A 26254.26028934 -.00000090 00000+0 00000+0 0 9997 2 48859 55.1268 328.9967 0028440 230.5018 127.7457 2.00563701038473 QZS-1R (QZSS/PRN 196) 1 49336U 21096A 26254.39252825 -.00000260 00000+0 00000+0 0 9995 2 49336 37.6399 78.3072 0743399 269.8635 277.5426 1.00288461017871 GSAT0223 (GALILEO 27) 1 49809U 21116A 26251.38578007 -.00000099 00000+0 00000+0 0 9992 2 49809 57.1270 339.4281 0003955 220.3982 200.3753 1.70476049029607 GSAT0224 (GALILEO 28) 1 49810U 21116B 26255.20646131 -.00000103 00000+0 00000+0 0 9999 2 49810 57.1262 339.3236 0003182 214.6681 143.5941 1.70476350029683 COSMOS 2557 (706K) 1 52984U 22075A 26254.92206911 -.00000044 00000+0 00000+0 0 9990 2 52984 64.2422 311.4262 0012521 269.0241 90.9097 2.13102028032563 COSMOS 2559 (707K) 1 54031U 22130A 26254.27264640 -.00000040 00000+0 00000+0 0 9994 2 54031 64.2155 311.5293 0013509 187.9833 172.0726 2.13101663030527 COSMOS 2564 (761) 1 54377U 22161A 26255.05410311 .00000003 00000+0 00000+0 0 9994 2 54377 64.7428 189.8304 0011002 219.0104 140.9023 2.13102030029487 GPS BIII-6 (PRN 28) 1 55268U 23009A 26254.45877955 .00000015 00000+0 00000+0 0 9993 2 55268 55.1273 145.1261 0005541 333.0185 207.9019 2.00565475026975 BEIDOU-3 G4 (C62) 1 56564U 23066A 26255.32198850 -.00000295 00000+0 00000+0 0 9994 2 56564 0.4400 356.6797 0005257 198.7514 51.8772 1.00271116012263 NVS-01 (IRNSS-1J) 1 56759U 23076A 26255.24858149 -.00000353 00000+0 00000+0 0 9991 2 56759 1.9670 240.3206 0005750 0.3374 329.5457 1.00277375011984 COSMOS 2569 (703K) 1 57517U 23114A 26255.06619013 .00000000 00000+0 00000+0 0 9990 2 57517 65.3568 69.6932 0008570 289.2479 70.6925 2.13102544024115 BEIDOU-3 M28 (C50) 1 58654U 23207A 26255.28642221 -.00000045 00000+0 00000+0 0 9997 2 58654 55.8347 59.3693 0000711 44.9600 315.0622 1.86229677018465 BEIDOU-3 M26 (C48) 1 58655U 23207B 26255.08393648 -.00000043 00000+0 00000+0 0 9990 2 58655 55.8364 59.3628 0000918 252.9433 107.0639 1.86229584018449 GSAT0225 (GALILEO 29) 1 59598U 24079A 26254.92947344 .00000012 00000+0 00000+0 0 9990 2 59598 55.1754 98.6543 0001346 119.7816 61.6279 1.70474149014796 GSAT0227 (GALILEO 30) 1 59600U 24079C 26254.23092435 .00000015 00000+0 00000+0 0 9993 2 59600 55.1701 98.6721 0004144 92.2332 267.9075 1.70474135014832 GSAT0232 (GALILEO 32) 1 61182U 24167A 26255.05124064 .00000001 00000+0 00000+0 0 9999 2 61182 55.1656 218.9315 0005621 235.9553 123.2359 1.70473627012356 GSAT0226 (GALILEO 31) 1 61183U 24167B 26254.31972794 -.00000002 00000+0 00000+0 0 9991 2 61183 55.1647 218.9588 0002511 247.1445 114.4318 1.70473586012327 BEIDOU-3 M25 (C47) 1 61186U 24168B 26254.36429854 -.00000051 00000+0 00000+0 0 9998 2 61186 54.3933 299.2402 0004522 288.6681 66.5723 1.86230059013389 BEIDOU-3 M27 (C49) 1 61187U 24168C 26254.80535818 -.00000054 00000+0 00000+0 0 9999 2 61187 54.3885 299.2074 0000728 333.0111 92.9908 1.86230254010874 GPS BIII-7 (PRN 01) 1 62339U 24242A 26252.19379153 -.00000088 00000+0 00000+0 0 9997 2 62339 54.8068 330.7730 0019176 1.5951 67.0727 2.00573456012941 QZS-6 (QZSS/PRN 200) 1 62876U 25023A 26255.00999221 -.00000248 00000+0 00000+0 0 9996 2 62876 0.0404 73.6831 0001610 112.5074 258.9253 1.00270149005817 COSMOS 2584 (704K) 1 63130U 25042A 26254.95285329 .00000001 00000+0 00000+0 0 9997 2 63130 65.1394 69.8549 0006381 202.7942 157.2117 2.13103480011893 GPS BIII-8 (PRN 21) 1 64202U 25116A 26254.58352148 -.00000093 00000+0 00000+0 0 9995 2 64202 55.2912 27.6605 0008964 334.7276 202.3499 2.00569574009607 COSMOS 2596 (708K) 1 65590U 25206B 26255.26825492 -.00000046 00000+0 00000+0 0 9997 2 65590 64.5787 311.9496 0012332 301.9191 55.4949 2.13100809007762 GSAT0233 (GALILEO 33) 1 67160U 25302A 26254.16480075 .00000014 00000+0 00000+0 0 9995 2 67160 54.3907 99.6797 0002812 137.8820 225.2404 1.70474110004591 GSAT0234 (GALILEO 34) 1 67162U 25302C 26254.15878367 .00000014 00000+0 00000+0 0 9991 2 67162 54.3927 99.6790 0000510 35.7866 143.7414 1.70474090004645 GPS BIII-9 (PRN 20) 1 67588U 26017A 26254.94736220 .00000002 00000+0 00000+0 0 9992 2 67588 55.1491 85.2737 0020741 263.1983 96.6286 2.00568964433354 GPS BIII-10 (PRN 13) 1 68791U 26087A 26254.39889477 -.00000012 00000+0 00000+0 0 9990 2 68791 54.9553 204.3810 0021324 102.9910 67.7109 2.00577427002563 COSMOS 2619 1 A0460U 26194A 26246.05024263 -.00000032 00000+0 00000+0 0 9998 2 A0460 64.7592 312.0581 0004655 49.6429 310.4698 2.12709114000221